Torna al catalogo

STARLINK-31592

AttivoComunicazioniVLEO
NORAD 59467·PAYLOAD·🇺🇸 United States

Lanciato Apr 10, 2024 da Cape Canaveral Space Force Station

Loading…

Prossimi Passaggi (prossime 24 ore)

TLE

AggiornatoSource: CelesTrak SupGP

Epoca: Sep 14, 2026, 22:17 UTC

1 59467C 24068N   26257.92895833  .00050894  00000+0  18437-2 0  2577
2 59467  43.0043  46.0595 0001776 276.4546   0.7878 15.27546277    18

Traccia STARLINK-31592 in tempo reale con AllMySat

Download on the App Store